Time,TemperatureF,DewpointF,PressureIn,WindDirection,WindDirectionDegrees,WindSpeedMPH,WindSpeedGustMPH,Humidity,HourlyPrecipIn,Conditions,Clouds,dailyrainin,SoftwareType,DateUTC
2016-08-29 00:05:00,74.0,68.0,30.16,NNE,26,0.0,0.0,81,-99.99,,,-99.99,,2016-08-29 04:05:00,
2016-08-29 00:14:00,74.0,68.0,30.15,NNE,26,0.0,0.0,81,-99.99,,,-99.99,,2016-08-29 04:14:00,
2016-08-29 00:27:00,73.0,67.0,30.16,NNE,26,0.0,0.0,82,-99.99,,,-99.99,,2016-08-29 04:27:00,
2016-08-29 00:37:00,73.0,68.0,30.16,NNE,26,0.0,0.0,83,-99.99,,,-99.99,,2016-08-29 04:37:00,
2016-08-29 00:49:00,73.0,68.0,30.16,NNE,26,0.0,0.0,84,-99.99,,,-99.99,,2016-08-29 04:49:00,
2016-08-29 01:18:00,72.0,67.0,30.16,NNE,26,0.0,0.0,85,-99.99,,,-99.99,,2016-08-29 05:18:00,
2016-08-29 01:27:00,72.0,67.0,30.16,NNE,26,0.0,0.0,85,-99.99,,,-99.99,,2016-08-29 05:27:00,
2016-08-29 01:37:00,72.0,67.0,30.16,NNE,26,0.0,-999.0,85,-99.99,,,-99.99,,2016-08-29 05:37:00,
2016-08-29 01:57:00,71.0,67.0,30.14,NNE,28,0.0,0.0,87,-99.99,,,-99.99,,2016-08-29 05:57:00,
2016-08-29 02:06:00,71.0,67.0,30.14,NNE,28,0.0,0.0,87,-99.99,,,-99.99,,2016-08-29 06:06:00,
2016-08-29 02:17:00,71.0,67.0,30.14,NNE,28,0.0,0.0,87,-99.99,,,-99.99,,2016-08-29 06:17:00,
2016-08-29 02:28:00,71.0,67.0,30.13,NNE,28,0.0,0.0,88,-99.99,,,-99.99,,2016-08-29 06:28:00,
2016-08-29 02:35:00,71.0,67.0,30.13,NNE,28,0.0,0.0,87,-99.99,,,-99.99,,2016-08-29 06:35:00,
2016-08-29 02:46:00,71.0,67.0,30.13,NNE,28,0.0,0.0,87,-99.99,,,-99.99,,2016-08-29 06:46:00,
2016-08-29 03:00:00,71.0,67.0,30.13,SE,138,0.0,0.0,86,-99.99,,,-99.99,,2016-08-29 07:00:00,
2016-08-29 03:07:00,72.0,67.0,30.12,SE,140,0.0,0.0,85,-99.99,,,-99.99,,2016-08-29 07:07:00,
2016-08-29 03:17:00,72.0,67.0,30.12,SSE,150,0.0,0.0,83,-99.99,,,-99.99,,2016-08-29 07:17:00,
2016-08-29 03:26:00,72.0,67.0,30.12,SW,221,0.0,0.0,83,-99.99,,,-99.99,,2016-08-29 07:26:00,
2016-08-29 03:38:00,73.0,67.0,30.11,SSW,211,0.0,0.0,82,-99.99,,,-99.99,,2016-08-29 07:38:00,
2016-08-29 03:47:00,73.0,67.0,30.11,SSE,157,0.0,0.0,81,-99.99,,,-99.99,,2016-08-29 07:47:00,
2016-08-29 03:57:00,73.0,67.0,30.10,SSW,194,0.0,0.0,81,-99.99,,,-99.99,,2016-08-29 07:57:00,
2016-08-29 04:04:00,73.0,67.0,30.10,SSW,194,0.0,0.0,81,-99.99,,,-99.99,,2016-08-29 08:04:00,
2016-08-29 04:14:00,73.0,67.0,30.10,SSW,194,0.0,0.0,81,-99.99,,,-99.99,,2016-08-29 08:14:00,
2016-08-29 04:24:00,72.0,67.0,30.09,South,171,0.0,0.0,83,-99.99,,,-99.99,,2016-08-29 08:24:00,
2016-08-29 04:34:00,72.0,67.0,30.08,SSE,163,0.0,0.0,83,-99.99,,,-99.99,,2016-08-29 08:34:00,
2016-08-29 04:44:00,72.0,67.0,30.09,SW,221,0.0,0.0,84,-99.99,,,-99.99,,2016-08-29 08:44:00,
2016-08-29 04:54:00,72.0,67.0,30.09,South,175,0.0,0.0,84,-99.99,,,-99.99,,2016-08-29 08:54:00,
2016-08-29 05:04:00,72.0,67.0,30.09,South,175,0.0,0.0,85,-99.99,,,-99.99,,2016-08-29 09:04:00,
2016-08-29 05:13:00,71.0,66.0,30.09,South,176,0.0,0.0,85,-99.99,,,-99.99,,2016-08-29 09:13:00,
2016-08-29 05:24:00,71.0,66.0,30.09,South,176,0.0,0.0,85,-99.99,,,-99.99,,2016-08-29 09:24:00,
2016-08-29 05:44:00,71.0,67.0,30.09,South,176,0.0,0.0,87,-99.99,,,-99.99,,2016-08-29 09:44:00,
2016-08-29 05:54:00,70.0,66.0,30.10,South,176,0.0,0.0,88,-99.99,,,-99.99,,2016-08-29 09:54:00,
2016-08-29 06:04:00,70.0,67.0,30.10,South,176,0.0,0.0,89,-99.99,,,-99.99,,2016-08-29 10:04:00,
2016-08-29 06:14:00,70.0,67.0,30.10,South,176,0.0,0.0,89,-99.99,,,-99.99,,2016-08-29 10:14:00,
2016-08-29 06:35:00,69.0,66.0,30.12,South,176,0.0,0.0,91,-99.99,,,-99.99,,2016-08-29 10:35:00,
2016-08-29 06:58:00,69.0,66.0,30.12,South,176,0.0,0.0,91,-99.99,,,-99.99,,2016-08-29 10:58:00,
2016-08-29 07:07:00,69.0,67.0,30.12,South,176,0.0,0.0,92,-99.99,,,-99.99,,2016-08-29 11:07:00,
2016-08-29 07:15:00,69.0,67.0,30.12,South,176,0.0,0.0,92,-99.99,,,-99.99,,2016-08-29 11:15:00,
2016-08-29 07:25:00,69.0,67.0,30.13,South,176,0.0,0.0,93,-99.99,,,-99.99,,2016-08-29 11:25:00,
2016-08-29 07:37:00,70.0,68.0,30.13,South,176,0.0,0.0,93,-99.99,,,-99.99,,2016-08-29 11:37:00,
2016-08-29 07:59:00,72.0,69.0,30.14,SSW,201,0.0,0.0,90,-99.99,,,-99.99,,2016-08-29 11:59:00,
2016-08-29 08:06:00,73.0,69.0,30.14,SSW,201,0.0,0.0,87,-99.99,,,-99.99,,2016-08-29 12:06:00,
2016-08-29 08:15:00,73.0,69.0,30.14,SSW,201,0.0,0.0,87,-99.99,,,-99.99,,2016-08-29 12:15:00,
2016-08-29 08:25:00,75.0,69.0,30.14,SSW,201,0.0,0.0,83,-99.99,,,-99.99,,2016-08-29 12:25:00,
2016-08-29 08:57:00,75.0,69.0,30.15,NNW,333,0.0,0.0,82,-99.99,,,-99.99,,2016-08-29 12:57:00,
2016-08-29 09:07:00,76.0,70.0,30.15,NNW,333,0.0,0.0,82,-99.99,,,-99.99,,2016-08-29 13:07:00,
2016-08-29 09:15:00,76.0,70.0,30.15,NNW,333,0.0,0.0,82,-99.99,,,-99.99,,2016-08-29 13:15:00,
2016-08-29 09:26:00,76.0,70.0,30.15,NNW,333,0.0,0.0,82,-99.99,,,-99.99,,2016-08-29 13:26:00,
2016-08-29 09:36:00,76.0,70.0,30.15,NNW,333,0.0,0.0,82,-99.99,,,-99.99,,2016-08-29 13:36:00,
2016-08-29 10:04:00,81.0,71.0,30.14,NNW,346,0.0,0.0,72,-99.99,,,-99.99,,2016-08-29 14:04:00,
2016-08-29 10:13:00,82.0,72.0,30.14,North,355,0.0,0.0,71,-99.99,,,-99.99,,2016-08-29 14:13:00,
2016-08-29 10:24:00,82.0,71.0,30.14,NNE,14,0.0,0.0,70,-99.99,,,-99.99,,2016-08-29 14:24:00,
2016-08-29 10:34:00,82.0,71.0,30.14,NNE,13,0.0,0.0,69,-99.99,,,-99.99,,2016-08-29 14:34:00,
2016-08-29 10:44:00,82.0,71.0,30.14,NNE,13,0.0,0.0,69,-99.99,,,-99.99,,2016-08-29 14:44:00,
2016-08-29 10:54:00,85.0,71.0,30.14,WSW,250,0.0,0.0,64,-99.99,,,-99.99,,2016-08-29 14:54:00,
2016-08-29 11:04:00,85.0,71.0,30.14,WSW,250,0.0,0.0,64,-99.99,,,-99.99,,2016-08-29 15:04:00,
2016-08-29 11:13:00,85.0,71.0,30.14,North,0,0.0,0.0,64,-99.99,,,-99.99,,2016-08-29 15:13:00,
2016-08-29 11:24:00,85.0,71.0,30.14,North,0,0.0,0.0,64,-99.99,,,-99.99,,2016-08-29 15:24:00,
2016-08-29 11:35:00,85.0,71.0,30.14,North,0,0.0,0.0,64,-99.99,,,-99.99,,2016-08-29 15:35:00,
2016-08-29 11:45:00,86.0,71.0,30.13,ESE,109,0.0,0.0,62,-99.99,,,-99.99,,2016-08-29 15:45:00,
2016-08-29 11:54:00,87.0,71.0,30.14,WNW,286,0.0,0.0,59,-99.99,,,-99.99,,2016-08-29 15:54:00,
2016-08-29 12:05:00,88.0,71.0,30.13,ENE,76,0.0,0.0,58,-99.99,,,-99.99,,2016-08-29 16:05:00,
2016-08-29 12:15:00,88.0,71.0,30.13,ESE,122,0.0,3.0,57,-99.99,,,-99.99,,2016-08-29 16:15:00,
2016-08-29 12:37:00,88.0,72.0,30.12,ESE,123,0.0,-999.0,59,-99.99,,,-99.99,,2016-08-29 16:37:00,
2016-08-29 12:58:00,91.0,71.0,30.11,WNW,302,2.0,7.0,53,-99.99,,,-99.99,,2016-08-29 16:58:00,
2016-08-29 13:12:00,90.0,72.0,30.11,ESE,119,0.0,7.0,56,-99.99,,,-99.99,,2016-08-29 17:12:00,
2016-08-29 13:29:00,91.0,72.0,30.11,North,9,0.0,-999.0,54,-99.99,,,-99.99,,2016-08-29 17:29:00,
2016-08-29 13:36:00,91.0,72.0,30.11,North,9,0.0,3.0,54,-99.99,,,-99.99,,2016-08-29 17:36:00,
2016-08-29 13:48:00,90.0,72.0,30.11,ESE,104,0.0,2.0,55,-99.99,,,-99.99,,2016-08-29 17:48:00,
2016-08-29 13:55:00,90.0,72.0,30.11,ESE,104,0.0,2.0,55,-99.99,,,-99.99,,2016-08-29 17:55:00,
2016-08-29 14:15:00,91.0,71.0,30.11,WNW,298,0.0,-999.0,53,-99.99,,,-99.99,,2016-08-29 18:15:00,
2016-08-29 14:25:00,89.0,71.0,30.11,ESE,105,0.0,3.0,55,-99.99,,,-99.99,,2016-08-29 18:25:00,
2016-08-29 14:37:00,90.0,71.0,30.10,ESE,109,0.0,0.0,54,-99.99,,,-99.99,,2016-08-29 18:37:00,
2016-08-29 14:46:00,91.0,70.0,30.10,NW,305,0.0,2.0,50,-99.99,,,-99.99,,2016-08-29 18:46:00,
2016-08-29 14:57:00,93.0,71.0,30.09,WNW,300,0.0,2.0,49,-99.99,,,-99.99,,2016-08-29 18:57:00,
2016-08-29 15:07:00,91.0,71.0,30.09,North,9,0.0,2.0,52,-99.99,,,-99.99,,2016-08-29 19:07:00,
2016-08-29 15:25:00,90.0,70.0,30.08,North,11,0.0,1.0,52,-99.99,,,-99.99,,2016-08-29 19:25:00,
2016-08-29 15:36:00,91.0,71.0,30.08,SE,127,0.0,2.0,53,-99.99,,,-99.99,,2016-08-29 19:36:00,
2016-08-29 16:24:00,91.0,73.0,30.06,NE,41,0.0,2.0,55,-99.99,,,-99.99,,2016-08-29 20:24:00,
2016-08-29 16:34:00,89.0,72.0,30.06,NE,41,0.0,0.0,57,-99.99,,,-99.99,,2016-08-29 20:34:00,
2016-08-29 16:44:00,90.0,71.0,30.05,West,272,0.0,2.0,54,-99.99,,,-99.99,,2016-08-29 20:44:00,
2016-08-29 17:04:00,90.0,72.0,30.04,West,272,0.0,0.0,55,-99.99,,,-99.99,,2016-08-29 21:04:00,
2016-08-29 17:14:00,90.0,71.0,30.04,WNW,284,0.0,2.0,54,-99.99,,,-99.99,,2016-08-29 21:14:00,
2016-08-29 17:24:00,90.0,73.0,30.04,NW,317,0.0,0.0,57,-99.99,,,-99.99,,2016-08-29 21:24:00,
2016-08-29 17:35:00,90.0,72.0,30.04,NNW,337,0.0,2.0,55,-99.99,,,-99.99,,2016-08-29 21:35:00,
2016-08-29 17:44:00,90.0,72.0,30.04,NNW,337,0.0,2.0,55,-99.99,,,-99.99,,2016-08-29 21:44:00,
2016-08-29 17:54:00,89.0,71.0,30.03,North,350,0.0,1.0,56,-99.99,,,-99.99,,2016-08-29 21:54:00,
2016-08-29 18:05:00,89.0,72.0,30.03,NNW,348,0.0,1.0,58,-99.99,,,-99.99,,2016-08-29 22:05:00,
2016-08-29 18:25:00,89.0,72.0,30.03,NNW,336,0.0,2.0,57,-99.99,,,-99.99,,2016-08-29 22:25:00,
2016-08-29 18:35:00,89.0,73.0,30.03,SW,232,0.0,2.0,59,-99.99,,,-99.99,,2016-08-29 22:35:00,
2016-08-29 18:45:00,89.0,73.0,30.03,SW,232,0.0,2.0,59,-99.99,,,-99.99,,2016-08-29 22:45:00,
2016-08-29 18:55:00,88.0,72.0,30.04,WSW,251,0.0,0.0,59,-99.99,,,-99.99,,2016-08-29 22:55:00,
2016-08-29 19:07:00,88.0,72.0,30.04,WSW,251,0.0,0.0,59,-99.99,,,-99.99,,2016-08-29 23:07:00,
2016-08-29 19:15:00,88.0,73.0,30.03,WSW,251,0.0,0.0,61,-99.99,,,-99.99,,2016-08-29 23:15:00,
2016-08-29 19:30:00,87.0,73.0,30.04,WSW,251,0.0,-999.0,63,-99.99,,,-99.99,,2016-08-29 23:30:00,
2016-08-29 19:38:00,86.0,72.0,30.04,WSW,251,0.0,-999.0,64,-99.99,,,-99.99,,2016-08-29 23:38:00,
2016-08-29 19:55:00,86.0,73.0,30.04,WSW,251,0.0,0.0,65,-99.99,,,-99.99,,2016-08-29 23:55:00,
2016-08-29 20:08:00,86.0,73.0,30.04,WSW,251,0.0,0.0,65,-99.99,,,-99.99,,2016-08-30 00:08:00,
2016-08-29 20:15:00,85.0,72.0,30.04,WSW,251,0.0,0.0,65,-99.99,,,-99.99,,2016-08-30 00:15:00,
2016-08-29 20:27:00,85.0,72.0,30.04,WSW,251,0.0,0.0,65,-99.99,,,-99.99,,2016-08-30 00:27:00,
2016-08-29 20:35:00,85.0,72.0,30.04,WSW,251,0.0,0.0,65,-99.99,,,-99.99,,2016-08-30 00:35:00,
2016-08-29 20:46:00,84.0,73.0,30.06,WSW,251,0.0,0.0,70,-99.99,,,-99.99,,2016-08-30 00:46:00,
2016-08-29 20:55:00,83.0,73.0,30.06,WSW,251,0.0,0.0,71,-99.99,,,-99.99,,2016-08-30 00:55:00,
2016-08-29 21:07:00,83.0,73.0,30.06,WSW,251,0.0,-999.0,72,-99.99,,,-99.99,,2016-08-30 01:07:00,
2016-08-29 21:16:00,82.0,72.0,30.06,WSW,251,0.0,0.0,73,-99.99,,,-99.99,,2016-08-30 01:16:00,
2016-08-29 21:25:00,82.0,72.0,30.07,WSW,251,0.0,0.0,73,-99.99,,,-99.99,,2016-08-30 01:25:00,
2016-08-29 21:35:00,82.0,73.0,30.07,WSW,251,0.0,0.0,74,-99.99,,,-99.99,,2016-08-30 01:35:00,